Date,TemperatureHighF,TemperatureAvgF,TemperatureLowF,DewpointHighF,DewpointAvgF,DewpointLowF,HumidityHigh,HumidityAvg,HumidityLow,PressureMaxIn,PressureMinIn,WindSpeedMaxMPH,WindSpeedAvgMPH,GustSpeedMaxMPH,PrecipitationSumIn
2013-1-1,42.0,38.9,31.0,33.0,29.5,19.0,79,69,60,29.91,29.74,4,2,0,0.00
2013-1-2,36.0,29.0,24.0,20.0,17.3,15.0,78,61,49,30.08,29.88,5,2,0,0.00
2013-1-3,37.0,28.0,21.0,21.0,18.5,16.0,85,68,47,30.09,29.98,3,1,0,0.00
2013-1-4,40.0,34.6,26.0,25.0,23.6,20.0,78,64,54,30.01,29.88,5,3,0,0.00
2013-1-5,44.0,34.3,26.0,27.0,23.6,20.0,80,65,48,30.20,29.94,4,2,0,0.00
2013-1-6,49.0,38.4,33.0,38.0,32.4,28.0,95,80,53,30.03,29.88,3,1,0,0.00
2013-1-7,49.0,36.4,27.0,34.0,28.4,24.0,91,75,46,30.30,29.95,4,1,0,0.00
2013-1-8,51.0,35.6,24.0,35.0,29.4,22.0,94,80,53,30.33,30.24,5,1,0,0.00
2013-1-9,54.0,42.8,30.0,43.0,36.7,28.0,96,80,61,30.29,30.06,4,1,0,0.00
2013-1-10,53.0,43.3,34.0,36.0,29.8,27.0,82,60,41,30.42,30.16,5,2,0,0.00
2013-1-11,48.0,45.7,33.0,47.0,43.6,28.0,96,92,82,30.42,29.96,5,1,0,0.00
2013-1-12,49.0,46.9,45.0,48.0,45.8,44.0,97,96,93,30.06,29.94,2,0,0,0.00
2013-1-13,57.0,48.3,42.0,52.0,46.6,41.0,98,94,81,30.05,29.90,4,1,0,0.00
2013-1-14,58.0,53.4,44.0,56.0,49.2,35.0,98,87,56,30.16,29.84,4,1,0,0.00
2013-1-15,42.0,39.0,38.0,39.0,35.7,31.0,95,88,72,30.23,30.10,3,1,0,0.00
2013-1-16,41.0,37.9,35.0,40.0,36.9,34.0,97,97,96,29.98,29.68,4,1,0,0.00
2013-1-17,44.0,39.0,36.0,37.0,34.8,33.0,97,85,66,29.98,29.83,3,1,0,0.00
2013-1-18,36.0,31.4,24.0,34.0,19.6,11.0,92,63,38,30.40,29.88,6,2,0,0.00
2013-1-19,55.0,39.2,25.0,32.0,25.5,15.0,76,60,37,30.33,29.85,8,4,0,0.00
2013-1-20,58.0,45.2,33.0,34.0,27.4,15.0,71,51,31,29.94,29.62,7,4,0,0.00
2013-1-21,35.0,30.7,26.0,27.0,18.1,13.0,92,61,41,30.00,29.72,4,1,0,0.00
2013-1-22,25.0,19.7,14.0,22.0,6.6,-1.0,90,57,40,30.13,29.74,6,4,0,0.00
2013-1-23,23.0,14.9,7.0,6.0,2.5,-2.0,83,58,44,30.17,30.07,5,2,0,0.00
2013-1-24,27.0,16.7,6.0,8.0,4.7,1.0,89,62,34,30.31,30.02,7,2,0,0.00
2013-1-25,26.0,18.3,12.0,17.0,7.9,2.0,89,65,41,30.33,29.96,4,1,0,0.00
2013-1-26,30.0,18.8,8.0,17.0,10.8,5.0,92,73,47,30.28,29.95,5,1,0,0.00
2013-1-27,37.0,21.9,9.0,18.0,12.7,5.0,89,69,43,30.43,30.28,4,1,0,0.00
2013-1-28,36.0,29.3,18.0,34.0,26.3,14.0,96,88,79,30.40,29.92,4,1,0,0.00
2013-1-29,53.0,42.2,33.0,47.0,39.6,32.0,97,91,73,30.04,29.90,3,1,0,0.00
2013-1-30,68.0,56.2,45.0,60.0,53.2,44.0,97,90,75,29.96,29.29,11,4,0,0.00
2013-1-31,61.0,60.3,60.0,59.0,58.3,14.0,93,93,93,29.73,29.28,11,10,0,0.00